N2UGS-WX Weather Reports


Display with metric or nautical units.
time (UTC)temp
F
wind
direction
speed
MPH
gust
MPH
rain 1hr
in
rain 24hr
in
rain mn
in
humidity
%
barometer
mb
20260510143902 54 342 4.0 6.0 0.00 0.00 0.01 48 1015.9
20260510142402 52 257 2.0 8.0 0.00 0.00 0.01 47 1015.9
20260510140902 51 47 8.0 9.0 0.00 0.00 0.01 49 1015.6
20260510135402 50 341 6.0 9.0 0.00 0.00 0.01 50 1015.6
20260510134401 50 290 5.0 7.0 0.00 0.00 0.01 51 1015.6
20260510132901 50 273 4.0 6.0 0.00 0.00 0.01 56 1015.2
20260510131401 48 37 10.0 10.0 0.01 0.00 0.01 58 1014.9
20260510130002 48 334 6.0 10.0 0.01 0.00 0.01 59 1014.9
20260510124902 47 0 7.0 12.0 0.01 0.00 0.01 60 1014.6
20260510123402 47 290 5.0 6.0 0.01 0.00 0.01 64 1014.9
20260510122003 46 4 4.0 8.0 0.00 0.00 0.00 67 1014.6
20260510120502 46 343 4.0 8.0 0.00 0.00 0.00 66 1014.2
20260510115001 46 233 3.0 6.0 0.00 0.00 0.00 69 1013.9
20260510113502 45 263 2.0 6.0 0.00 0.00 0.00 68 1013.5
20260510112402 45 241 2.0 2.0 0.00 0.00 0.00 71 1013.5
20260510111001 45 260 2.0 6.0 0.00 0.00 0.00 72 1013.2
20260510105402 44 277 2.0 4.0 0.00 0.00 0.00 72 1012.9
20260510103901 44 269 2.0 2.0 0.00 0.00 0.00 74 1012.5
20260510102502 45 315 0.0 2.0 0.00 0.00 0.00 72 1012.5
20260510100901 45 338 4.0 6.0 0.00 0.00 0.00 70 1011.9
20260510095503 45 331 1.0 7.0 0.00 0.00 0.00 76 1011.5
20260510094002 45 299 0.0 4.0 0.00 0.00 0.00 80 1011.5
20260510092502 45 276 0.0 2.0 0.00 0.00 0.00 82 1011.2
20260510091003 45 266 0.0 1.0 0.00 0.00 0.00 80 1011.5
20260510085502 46 271 2.0 3.0 0.00 0.00 0.00 77 1010.8
20260510084002 47 59 1.0 6.0 0.00 0.00 0.00 72 1010.8
20260510082902 47 339 1.0 4.0 0.00 0.00 0.00 74 1010.8
20260510081502 48 303 3.0 5.0 0.00 0.00 0.00 73 1011.2
20260510080401 48 30 5.0 5.0 0.00 0.00 0.00 77 1010.5
20260510074902 49 339 0.0 8.0 0.00 0.00 0.00 75 1010.5
20260510073502 49 36 3.0 5.0 0.00 0.00 0.00 78 1009.8
20260510071902 48 296 2.0 9.0 0.00 0.00 0.00 91 1009.5
20260510070502 49 101 0.0 0.0 0.00 0.00 0.00 95 1009.8
20260510065002 49 345 0.0 3.0 0.00 0.00 0.00 96 1009.1
20260510064002 50 63 0.0 1.0 0.00 0.00 0.00 96 1009.5
20260510062502 50 310 0.0 0.0 0.00 0.00 0.00 96 1009.1
20260510061002 50 344 0.0 2.0 0.00 0.00 0.00 96 1009.1
20260510055502 50 331 0.0 2.0 0.00 0.00 0.00 96 1009.1
20260510054502 50 303 3.0 3.0 0.00 0.00 0.00 96 1009.1
20260510053003 50 344 0.0 3.0 0.00 0.00 0.00 96 1008.8
20260510051501 50 256 0.0 4.0 0.00 0.00 0.00 96 1008.5
20260510045902 50 217 2.0 4.0 0.00 0.00 0.00 96 1008.5
20260510044503 50 136 3.0 3.0 0.00 0.00 0.00 96 1008.5
20260510043003 50 262 0.0 0.0 0.00 0.00 0.00 95 1007.8
20260510041503 50 324 0.0 0.0 0.00 0.00 0.00 95 1007.5
20260510040002 51 200 1.0 2.0 0.00 0.00 0.00 95 1007.5
20260510035002 51 255 2.0 3.0 0.00 0.00 0.18 95 1007.1
20260510034002 51 189 2.0 3.0 0.00 0.00 0.18 95 1007.1
20260510032502 51 289 3.0 5.0 0.00 0.00 0.18 94 1007.5
20260510031002 50 308 0.0 0.0 0.00 0.00 0.18 93 1007.5
20260510025502 50 269 0.0 0.0 0.00 0.00 0.18 92 1007.1
20260510024402 51 225 0.0 0.0 0.00 0.00 0.18 92 1007.1
20260510021501 52 320 2.0 4.0 0.00 0.00 0.18 91 1006.4
20260510020002 52 267 3.0 6.0 0.00 0.00 0.18 92 1006.8
20260510014502 52 199 4.0 4.0 0.00 0.00 0.18 92 1006.4
20260510013002 52 256 3.0 6.0 0.00 0.00 0.18 93 1006.4
20260510012002 51 142 4.0 6.0 0.00 0.00 0.18 94 1006.4
20260510010502 51 230 3.0 7.0 0.00 0.00 0.18 94 1006.4
20260510005502 51 227 0.0 3.0 0.00 0.00 0.18 94 1006.1
20260510004002 51 249 4.0 6.0 0.00 0.00 0.18 93 1005.4
20260510003003 51 249 3.0 8.0 0.01 0.00 0.18 94 1005.8
20260510001502 51 174 6.0 9.0 0.06 0.00 0.18 94 1005.8
20260510000002 51 184 6.0 8.0 0.08 0.00 0.18 94 1005.8
20260509234503 51 161 3.0 6.0 0.18 0.00 0.18 94 1005.8
20260509233002 51 258 8.0 8.0 0.16 0.00 0.16 94 1006.4
20260509231503 51 151 6.0 12.0 0.12 0.00 0.12 93 1006.4
20260509230002 52 332 13.0 22.0 0.06 0.00 0.06 88 1005.8
20260509224502 61 241 8.0 8.0 0.00 0.00 0.00 72 1004.1
20260509221502 62 348 0.0 5.0 0.00 0.00 0.00 65 1003.4
20260509220003 63 253 1.0 4.0 0.00 0.00 0.00 64 1003.7
20260509214503 64 233 4.0 5.0 0.00 0.00 0.00 61 1004.1
20260509213501 65 294 2.0 5.0 0.00 0.00 0.00 61 1003.7
20260509212003 64 251 5.0 5.0 0.00 0.00 0.00 61 1004.1
20260509211002 63 248 3.0 8.0 0.00 0.00 0.00 62 1004.4
20260509205503 64 311 7.0 8.0 0.00 0.00 0.00 60 1004.4
20260509204402 65 244 3.0 6.0 0.00 0.00 0.00 61 1004.4
20260509203001 64 223 3.0 7.0 0.00 0.00 0.00 61 1004.4
20260509201402 67 259 4.0 8.0 0.00 0.00 0.00 58 1004.4
20260509195002 69 307 5.0 9.0 0.00 0.00 0.00 52 1004.4
20260509193402 69 224 4.0 7.0 0.00 0.00 0.00 55 1004.7
20260509192002 68 245 10.0 10.0 0.00 0.00 0.00 57 1005.1
20260509190501 68 295 6.0 10.0 0.00 0.00 0.00 55 1005.4
20260509185001 67 230 5.0 14.0 0.00 0.00 0.00 58 1005.4
20260509183502 66 211 7.0 16.0 0.00 0.00 0.00 58 1005.4
20260509182001 66 206 8.0 13.0 0.00 0.00 0.00 59 1005.8
20260509180502 66 278 4.0 12.0 0.00 0.00 0.00 61 1005.8
20260509175002 67 163 4.0 9.0 0.00 0.00 0.00 57 1006.1
20260509173402 66 260 4.0 11.0 0.00 0.00 0.00 59 1006.4
20260509172003 68 228 5.0 10.0 0.00 0.00 0.00 58 1006.1
20260509171002 67 215 5.0 8.0 0.00 0.00 0.00 55 1006.4
20260509165402 65 242 5.0 11.0 0.00 0.00 0.00 58 1006.4
20260509164001 64 274 3.0 10.0 0.00 0.00 0.00 66 1006.8
20260509162502 63 247 6.0 11.0 0.00 0.00 0.00 63 1006.8
20260509161002 62 296 3.0 9.0 0.00 0.00 0.00 65 1006.8
20260509155502 62 255 3.0 11.0 0.00 0.00 0.00 64 1006.8
20260509154002 62 168 6.0 13.0 0.00 0.00 0.00 66 1006.8
20260509152502 62 268 2.0 7.0 0.00 0.00 0.00 67 1007.1
20260509151002 61 264 4.0 9.0 0.00 0.00 0.00 69 1007.1
20260509145502 59 304 6.0 11.0 0.00 0.00 0.00 69 1007.1